Tracking 31027 objects as of 19-Jul-2025
HD Live streaming from Space Station
objects crossing your sky now

COSMOS 1375 DEB

Track COSMOS 1375 DEB now!
10-day predictions


NORAD ID: 19453
Int'l Code: 1982-055BL
Perigee: 717.1 km
Apogee: 802.2 km
Inclination: 65.8 °
Period: 99.9 minutes
Semi major axis: 7130 km
RCS: 0.0034 m2 (small)
Launch date: June 6, 1982
Source: Commonwealth of Independent States (former USSR) (CIS)
Launch site: PLESETSK MISSILE AND SPACE COMPLEX (PKMTR)

Note: This is SATELLITE DEBRIS
Your satellite tracking list
SL-16 DEB
Track 1 satellite(s)




NASA's NSSDC Master Catalog

Two Line Element Set (TLE):
1 19453U 82055BL  25199.29063127  .00002549  00000-0  79102-3 0  9990
2 19453  65.8003 158.8941 0059712 266.4132 214.7485 14.41815809924119
Source of the keplerian elements: AFSPC